Regional Weather Roundup
Issued by NWS Raleigh/Durham, NC

Home | Current Version | Previous Version | Text Only | Print | Product List | Glossary On
Versions: 1 2 3 4 5 6 7 8 9 10 11 12 13 14 15 16 17 18 19 20 21 22 23 24 25 26 27 28 29 30 31 32 33 34 35 36 37 38 39 40 41 42 43 44 45 46 47 48 49 50
000
ASUS42 KRAH 011510
RWRRAH
NORTH CAROLINA WEATHER ROUNDUP
NATIONAL WEATHER SERVICE RALEIGH NC
1100 AM EDT WED JUL 01 2015

NOTE: "FAIR" INDICATES FEW OR NO CLOUDS BELOW 12,000 FEET WITH NO
SIGNIFICANT WEATHER AND/OR OBSTRUCTIONS TO VISIBILITY.

NCZ001-053-055-056-065-067-011600-
WESTERN NORTH CAROLINA

CITY           SKY/WX    TMP DP  RH WIND       PRES   REMARKS
ASHEVILLE      SUNNY     76  62  62 N7        30.07R
JEFFERSON      PTSUNNY   71  55  56 W14       30.09R
HICKORY        SUNNY     79  65  62 VRB5      30.00S
RUTHERFORDTON  NOT AVBL
MOUNT AIRY     SUNNY     79  64  60 W6        30.01S
$$

NCZ021-022-025-041-071-084-088-011600-
CENTRAL NORTH CAROLINA

CITY           SKY/WX    TMP DP  RH WIND       PRES   REMARKS
CHARLOTTE      MOSUNNY   79  66  64 VRB3      30.00R
GREENSBORO     CLOUDY    79  65  62 W8        29.98R
WINSTON-SALEM  SUNNY     80  63  55 VRB3      30.00R
RALEIGH-DURHAM CLOUDY    80  69  69 SW7       29.97S
FORT BRAGG     PTSUNNY   77  69  76 W5        29.98R
FAYETTEVILLE   CLOUDY    77  69  76 S7        29.99R
$$

NCZ011-015-027-028-043-044-047-080-103-011600-
NORTHEASTERN NORTH CAROLINA

CITY           SKY/WX    TMP DP  RH WIND       PRES   REMARKS
ROANOKE RAPIDS FAIR      77  68  73 SW6       29.95S
ROCKY MT-WILSO SUNNY     80  69  69 SW8       29.96S
GREENVILLE     SUNNY     79  70  73 SW5       29.98S
WASHINGTON     SUNNY     78  69  73 SW5       29.97S
ELIZABETH CITY NOT AVBL
MANTEO         SUNNY     82  69  64 W9        29.95S
CAPE HATTERAS  SUNNY     80  71  74 SW13      29.97R
$$

NCZ078-087-090-091-093-098-101-011600-
SOUTHEASTERN NORTH CAROLINA

CITY           SKY/WX    TMP DP  RH WIND       PRES   REMARKS
LUMBERTON      CLOUDY    75  70  84 SW6       29.99S
GOLDSBORO      MOSUNNY   79  70  75 VRB5      29.95F
KINSTON        MOSUNNY   79  68  69 SW7       29.98F
KENANSVILLE    CLOUDY    76  68  77 SW7       30.00S
NEW BERN       MOSUNNY   79  70  74 VRB6      29.98F
CHERRY POINT   SUNNY     82  70  66 VRB6      29.98F
BEAUFORT       SUNNY     81  72  74 SW14      29.97F
JACKSONVILLE   MOSUNNY   79  69  71 SW6       29.98S
WILMINGTON     MOSUNNY   79  71  76 W7        29.99S
$$




USA.gov is the U.S. government's official web portal to all federal, state and local government web resources and services.